TimeEDT,TemperatureF,Dew PointF,Humidity,Sea Level PressureIn,VisibilityMPH,Wind Direction,Wind SpeedMPH,Gust SpeedMPH,PrecipitationIn,Events,Conditions,WindDirDegrees,DateUTC
12:53 AM,32.0,21.0,64,30.11,10.0,West,6.9,-,N/A,,Clear,260,2013-03-20 04:53:00
1:53 AM,30.9,19.0,61,30.10,10.0,West,5.8,-,N/A,,Clear,270,2013-03-20 05:53:00
2:53 AM,30.9,19.0,61,30.09,10.0,WSW,6.9,-,N/A,,Clear,240,2013-03-20 06:53:00
3:53 AM,28.9,19.9,69,30.07,10.0,SW,5.8,-,N/A,,Clear,230,2013-03-20 07:53:00
4:53 AM,28.9,19.0,67,30.04,10.0,SW,4.6,-,N/A,,Clear,220,2013-03-20 08:53:00
5:53 AM,28.0,19.9,72,30.03,10.0,West,5.8,-,N/A,,Scattered Clouds,270,2013-03-20 09:53:00
6:53 AM,28.9,18.0,64,30.04,10.0,WNW,8.1,-,N/A,,Clear,290,2013-03-20 10:53:00
7:53 AM,28.9,18.0,64,30.05,10.0,West,6.9,-,N/A,,Scattered Clouds,280,2013-03-20 11:53:00
8:53 AM,28.9,16.0,58,30.06,10.0,WNW,13.8,-,N/A,,Clear,300,2013-03-20 12:53:00
9:53 AM,30.9,17.1,57,30.06,10.0,NW,16.1,21.9,N/A,,Scattered Clouds,310,2013-03-20 13:53:00
10:53 AM,30.0,15.1,54,30.06,10.0,West,18.4,24.2,N/A,,Mostly Cloudy,280,2013-03-20 14:53:00
11:53 AM,32.0,14.0,48,30.06,10.0,West,18.4,25.3,N/A,,Scattered Clouds,270,2013-03-20 15:53:00
12:53 PM,33.1,14.0,46,30.06,10.0,WNW,19.6,25.3,N/A,,Mostly Cloudy,300,2013-03-20 16:53:00
1:53 PM,33.1,12.0,42,30.05,10.0,West,17.3,24.2,N/A,,Mostly Cloudy,270,2013-03-20 17:53:00
2:53 PM,34.0,12.9,42,30.02,10.0,West,21.9,26.5,N/A,,Mostly Cloudy,280,2013-03-20 18:53:00
3:53 PM,33.1,12.9,43,30.01,10.0,West,18.4,26.5,N/A,,Mostly Cloudy,280,2013-03-20 19:53:00
4:53 PM,30.9,10.9,43,30.01,10.0,WNW,18.4,25.3,N/A,,Mostly Cloudy,290,2013-03-20 20:53:00
5:53 PM,28.9,9.0,43,30.02,10.0,West,18.4,27.6,N/A,,Mostly Cloudy,280,2013-03-20 21:53:00
6:53 PM,28.9,9.0,43,30.03,10.0,WNW,17.3,25.3,N/A,,Overcast,290,2013-03-20 22:53:00
7:53 PM,28.0,9.0,45,30.04,10.0,West,15.0,23.0,N/A,,Overcast,280,2013-03-20 23:53:00
8:53 PM,27.0,10.0,49,30.04,10.0,WNW,16.1,-,N/A,,Scattered Clouds,300,2013-03-21 00:53:00
9:53 PM,27.0,9.0,47,30.03,10.0,WNW,11.5,-,N/A,,Mostly Cloudy,290,2013-03-21 01:53:00
10:53 PM,26.1,10.0,51,30.02,10.0,NW,9.2,-,N/A,,Overcast,310,2013-03-21 02:53:00
11:53 PM,26.1,10.0,51,30.02,10.0,NW,11.5,-,N/A,,Mostly Cloudy,310,2013-03-21 03:53:00